Weather Service Report


928 
ASUS41 KRLX 281110
RWRRLX
West Virginia Regional Weather Roundup
National Weather Service Charleston WV
700 AM EDT MON JUL 28 2014

Note: "fair" indicates few or no clouds below 12,000 feet with no
significant weather and/or obstructions to visibility.

WVZ003-281200-
Northern Panhandle of West Virginia
  
CITY           SKY/WX    TMP DP  RH WIND       PRES   REMARKS
WHEELING       CLOUDY    63  59  87 W12G18    29.73R                  
$$

WVZ009-281200-
Northwest West Virginia
  
CITY           SKY/WX    TMP DP  RH WIND       PRES   REMARKS
PARKERSBURG      N/A    N/A N/A N/A MISG        N/A                   
$$

WVZ006-281200-
Western West Virginia
  
CITY           SKY/WX    TMP DP  RH WIND       PRES   REMARKS
HUNTINGTON     CLEAR     64  61  90 W7        29.84R                  
$$

WVZ015-281200-
West Central West Virginia
  
CITY           SKY/WX    TMP DP  RH WIND       PRES   REMARKS
CHARLESTON     MOCLDY    66  65  96 W7        29.82R                  
$$

WVZ031-281200-
North Central West Virginia
  
CITY           SKY/WX    TMP DP  RH WIND       PRES   REMARKS
CLARKSBURG     CLOUDY    66  60  81 W14G23    29.75R                  
MORGANTOWN     CLOUDY    68  60  75 W7G16     29.75R                  
$$

WVZ035-042-045-281200-
South Central West Virginia
  
CITY           SKY/WX    TMP DP  RH WIND       PRES   REMARKS
BECKLEY        CLOUDY    63  59  87 W12       29.87R                  
BLUEFIELD      CLOUDY    65  60  84 W13G21    29.91R                  
LEWISBURG      PTCLDY    67  58  74 W7        29.84R                  
$$

WVZ047-281200-
Northern Mountains of West Virginia
  
CITY           SKY/WX    TMP DP  RH WIND       PRES   REMARKS
ELKINS         CLOUDY    65  58  78 W17G25    29.78R                  
$$

WVZ052-281200-
Eastern Panhandle of West Virginia
  
CITY           SKY/WX    TMP DP  RH WIND       PRES   REMARKS
MARTINSBURG    MOCLDY    71  63  75 W13       29.63R                  
PETERSBURG     MOCLDY    69  54  57 W15G28    29.68R                  
$$

Return to Home page


Western Regional Climate Center, wrcc@dri.edu